Location: Albany
(35.0170°S, 117.8920°E)
Time: 21:03:51
(UTC+08:00)

A-11 Canister half - Pass Details

Date: 29 January 2021
Orbit: 1525 x 1684 km, 47.3° (Epoch: 03 March)

Event Time Altitude Azimuth Distance (km) Brightness Sun altitude
Rises 08:12:52 0° 236° (SW) 4,877 11.2 32.7°
Reaches altitude 10° 08:16:04 10° 238° (WSW) 3,867 10.8 33.4°
Maximum altitude 08:25:46 67° 318° (NW) 1,693 9.6 35.4°
Drops below altitude 10° 08:35:06 10° 38° (NE) 3,722 11.7 37.3°
Sets 08:38:08 0° 40° (NE) 4,686 12.1 37.9°
